[[{"header":{"parameterUnit":"m.s-1","parameterCategory":1,"la1":30.2991,"la2":30.254,"lo1":-89.0895,"lo2":-89.0444,"dy":0.0017,"dx":0.0017,"nx":28,"ny":28,"refTime":"2023-08-31T21:00:00:Z","depth":0,"parameterNumber":2,"parameterNumberName":"U-component_of_WINDS"},"data":[0,0,0,0,0,0,0,0,0,0,0,0,0,0,0,0,0,0,0,0,0,0,0,0,0,0,0,0,0,0,0,0,0,0,0,0,0,0,0,0,0,0,0,0,0,0,0,0,0,0,0,0,0,0,0,0,0,0,-1.27,-1.27,0,-1.2677,-1.2677,-1.2677,-1.2651,-1.2651,-1.265,-1.265,-1.2625,-1.2625,-1.2625,0,0,0,0,0,0,0,0,0,0,0,0,0,-1.2718,-1.2718,-1.27,-1.27,-1.2699,-1.2677,-1.2677,-1.2677,-1.2651,-1.2651,-1.265,-1.265,-1.2626,-1.2625,-1.2625,0,0,0,0,0,0,0,0,0,0,0,0,0,-1.2705,-1.2718,-1.27,-1.2684,-1.2682,-1.2677,-1.2677,-1.2676,-1.2651,-1.2651,-1.265,-1.265,-1.2626,-1.2625,-1.2625,-1.2633,0,0,-1.2623,-1.2623,0,0,0,0,0,0,0,0,-1.2705,-1.2704,-1.2687,-1.2685,-1.2683,-1.2666,-1.2674,-1.2662,-1.2651,-1.2663,-1.265,-1.2649,-1.2639,-1.2638,-1.2635,-1.2632,-1.2631,-1.2623,-1.2623,-1.2623,-1.2623,0,0,0,0,0,0,0,-1.2706,-1.2705,-1.2691,-1.2686,-1.2684,-1.2677,-1.2674,-1.2672,-1.2655,-1.2662,-1.266,-1.2658,-1.2638,-1.2635,-1.2634,-1.263,-1.2623,-1.2623,-1.2623,-1.2622,-1.263,-1.2631,0,0,0,0,0,0,-1.271,-1.2706,-1.2691,-1.269,-1.2693,-1.2677,-1.2674,-1.2672,-1.2655,-1.2651,-1.2658,-1.2657,-1.2636,-1.2635,-1.2633,-1.264,-1.2623,-1.2622,-1.2622,-1.263,-1.263,-1.2631,0,0,0,0,0,0,-1.271,-1.2709,-1.2692,-1.2697,-1.2695,-1.2677,-1.2675,-1.2672,-1.2669,-1.2652,-1.2648,-1.2658,-1.2636,-1.2634,-1.2633,-1.2639,-1.2622,-1.2622,-1.2629,-1.263,-1.2631,-1.2655,0,0,0,0,0,0,-1.2711,-1.2709,-1.2713,-1.2698,-1.2695,-1.2694,-1.2676,-1.2672,-1.2668,-1.2666,-1.2651,-1.2648,-1.2635,-1.2633,-1.2632,-1.2638,-1.2621,-1.2629,-1.263,-1.263,-1.2653,-1.2656,-1.2659,0,0,0,0,0,-1.2712,-1.2721,-1.2713,-1.2712,-1.2699,-1.2694,-1.2692,-1.2678,-1.2669,-1.2672,-1.2661,-1.2648,-1.2638,-1.2634,-1.2632,-1.2637,-1.2628,-1.2629,-1.263,-1.2652,-1.2656,-1.2658,0,0,0,0,0,0,-1.2738,-1.2719,-1.271,-1.2715,-1.2706,-1.269,-1.2693,-1.2682,-1.2676,-1.2674,-1.2655,-1.2652,-1.2653,-1.2645,-1.264,-1.2643,-1.2631,-1.2632,-1.2648,-1.2651,-1.2654,-1.2656,-1.2621,0,0,0,0,0,-1.2744,-1.2742,-1.2725,-1.2731,-1.2727,-1.2711,-1.2708,-1.2698,-1.2688,-1.2684,-1.2672,-1.2663,-1.2657,-1.2654,-1.2648,-1.2652,-1.2647,-1.2654,-1.2657,-1.2659,-1.266,-1.2659,-1.2662,-1.2635,-1.2635,-1.2635,0,0,-1.2757,-1.2746,-1.2746,-1.2736,-1.2728,-1.2725,-1.2708,-1.2707,-1.2704,-1.2684,-1.2682,-1.2673,-1.2661,-1.2662,-1.2661,-1.2655,-1.2667,-1.2661,-1.2663,-1.2662,-1.2661,-1.2663,-1.2666,-1.2635,-1.2635,-1.2635,0,0,-1.2779,-1.2771,-1.2774,-1.2766,-1.2754,-1.2743,-1.2744,-1.2728,-1.2722,-1.272,-1.2704,-1.27,-1.2691,-1.2682,-1.2677,-1.2693,-1.2681,-1.2692,-1.2705,-1.2705,-1.2707,-1.2709,-1.2713,-1.2715,-1.2693,-1.2693,-1.2693,0,-1.2796,-1.2792,-1.2777,-1.2776,-1.2771,-1.2752,-1.2754,-1.2747,-1.2733,-1.273,-1.2723,-1.271,-1.2701,-1.2698,-1.2702,-1.2699,-1.2698,-1.2693,-1.2708,-1.271,-1.2711,-1.2715,-1.2717,-1.2694,-1.2694,-1.2694,-1.2693,0,-1.2813,-1.2811,-1.2814,-1.2801,-1.2797,-1.2797,-1.2781,-1.2778,-1.2767,-1.2756,-1.2753,-1.2741,-1.2731,-1.273,-1.272,-1.2725,-1.2722,-1.2712,-1.2699,-1.2715,-1.2719,-1.272,-1.2696,-1.2695,-1.2695,-1.2695,0,0,-1.2851,-1.2829,-1.2831,-1.2824,-1.2808,-1.2806,-1.2804,-1.2795,-1.2792,-1.2783,-1.278,-1.2772,-1.2762,-1.2756,-1.2744,-1.2744,-1.2755,-1.2734,-1.2733,-1.2737,-1.2759,-1.2766,-1.2768,-1.2747,-1.2748,-1.2748,-1.2759,0,-1.287,-1.2867,-1.2852,-1.2853,-1.285,-1.2831,-1.2829,-1.2819,-1.2808,-1.2803,-1.279,-1.2785,-1.2773,-1.2769,-1.2767,-1.2754,-1.2759,-1.2753,-1.2743,-1.2743,-1.2746,-1.277,-1.2778,-1.279,-1.2761,-1.2761,-1.2761,0,-1.2891,-1.2883,-1.2884,-1.2866,-1.2864,-1.2864,-1.2853,-1.2848,-1.2835,-1.2827,-1.2819,-1.2806,-1.2802,-1.279,-1.2783,-1.2779,-1.2774,-1.2767,-1.2767,-1.2765,-1.2753,-1.2768,-1.2793,-1.2795,-1.2763,-1.2763,-1.2763,0,-1.2917,-1.2906,-1.2905,-1.29,-1.288,-1.288,-1.2871,-1.2858,-1.2853,-1.2843,-1.2839,-1.2828,-1.2822,-1.2814,-1.2797,-1.2791,-1.2792,-1.2779,-1.2784,-1.2784,-1.2785,-1.2785,-1.2809,-1.2783,-1.2783,-1.2783,-1.2783,0,-1.2939,-1.294,-1.2916,-1.2915,-1.2915,-1.2897,-1.2897,-1.2887,-1.2875,-1.287,-1.2853,-1.2849,-1.2828,-1.2821,-1.2808,-1.2803,-1.2801,-1.2793,-1.2789,-1.2794,-1.2795,-1.279,-1.2789,-1.2783,-1.2783,-1.2783,-1.2783,0,-1.2968,-1.2953,-1.2949,-1.2931,-1.2926,-1.2927,-1.291,-1.2907,-1.2895,-1.289,-1.2887,-1.2868,-1.2859,-1.2841,-1.2827,-1.2818,-1.2816,-1.281,-1.282,-1.2818,-1.2823,-1.2822,-1.2844,-1.2845,-1.2819,-1.282,-1.282,0,-1.2982,-1.2983,-1.2964,-1.296,-1.2952,-1.2946,-1.294,-1.2922,-1.2916,-1.29,-1.2899,-1.2889,-1.2879,-1.2865,-1.2849,-1.2837,-1.2831,-1.2839,-1.2829,-1.2833,-1.2829,-1.2829,-1.2828,-1.2841,-1.2842,-1.2842,-1.2842,0,-1.3009,-1.3001,-1.2994,-1.2983,-1.2977,-1.2968,-1.2957,-1.2955,-1.2934,-1.2928,-1.2919,-1.2911,-1.2896,-1.2885,-1.2871,-1.2861,-1.2848,-1.2846,-1.2846,-1.285,-1.2856,-1.2852,-1.2826,-1.2845,-1.2845,-1.2845,-1.2845,-1.2844,-1.3031,-1.3029,-1.3015,-1.3007,-1.2997,-1.2988,-1.2984,-1.2971,-1.2963,-1.295,-1.2939,-1.293,-1.2915,-1.2894,-1.2885,-1.2876,-1.287,-1.2871,-1.2871,-1.2871,-1.2872,-1.2858,-1.2874,-1.2874,-1.2873,-1.2873,-1.2873,0,-1.3055,-1.3045,-1.3038,-1.3024,-1.3017,-1.3005,-1.2993,-1.2987,-1.298,-1.2967,-1.2958,-1.2946,-1.2935,-1.2917,-1.2904,-1.29,-1.2894,-1.2898,-1.2897,-1.2895,-1.2879,-1.288,-1.2903,-1.2903,-1.2903,-1.2903,-1.2903,-1.2903,-1.3068,-1.3064,-1.3054,-1.3045,-1.3034,-1.3025,-1.3019,-1.3009,-1.2999,-1.2986,-1.2977,-1.2966,-1.295,-1.2936,-1.2924,-1.2919,-1.2915,-1.292,-1.2913,-1.2899,-1.2896,-1.2893,-1.2894,-1.292,-1.292,-1.2929,-1.2929,-1.2929]},{"header":{"parameterUnit":"m.s-1","parameterCategory":1,"la1":30.2991,"la2":30.254,"lo1":-89.0895,"lo2":-89.0444,"dy":0.0017,"dx":0.0017,"nx":28,"ny":28,"refTime":"2023-08-31T21:00:00:Z","depth":0,"parameterNumber":3,"parameterNumberName":"V-component_of_WINDS"},"data":[0,0,0,0,0,0,0,0,0,0,0,0,0,0,0,0,0,0,0,0,0,0,0,0,0,0,0,0,0,0,0,0,0,0,0,0,0,0,0,0,0,0,0,0,0,0,0,0,0,0,0,0,0,0,0,0,0,0,-1.8355,-1.8355,0,-1.8351,-1.8351,-1.8351,-1.8356,-1.8357,-1.8357,-1.8357,-1.8351,-1.8351,-1.835,0,0,0,0,0,0,0,0,0,0,0,0,0,-1.8364,-1.8364,-1.8355,-1.8355,-1.8355,-1.8351,-1.8351,-1.8351,-1.8356,-1.8357,-1.8357,-1.8357,-1.8351,-1.8351,-1.835,0,0,0,0,0,0,0,0,0,0,0,0,0,-1.836,-1.8364,-1.8355,-1.8357,-1.8357,-1.8351,-1.8351,-1.8351,-1.8356,-1.8357,-1.8357,-1.8357,-1.8351,-1.8351,-1.835,-1.8341,0,0,-1.8349,-1.8348,0,0,0,0,0,0,0,0,-1.8361,-1.836,-1.8357,-1.8357,-1.8357,-1.8355,-1.8352,-1.8348,-1.8356,-1.8357,-1.8357,-1.8357,-1.8352,-1.8351,-1.835,-1.8341,-1.8341,-1.8349,-1.8348,-1.8348,-1.8348,0,0,0,0,0,0,0,-1.8361,-1.836,-1.8354,-1.8357,-1.8357,-1.8357,-1.8357,-1.8352,-1.8353,-1.8357,-1.8357,-1.8357,-1.8352,-1.835,-1.835,-1.8341,-1.8349,-1.8348,-1.8348,-1.8348,-1.8322,-1.8322,0,0,0,0,0,0,-1.8361,-1.836,-1.8354,-1.8354,-1.836,-1.8357,-1.8357,-1.8355,-1.8353,-1.8353,-1.8356,-1.8357,-1.8351,-1.835,-1.835,-1.8338,-1.8348,-1.8348,-1.8347,-1.8323,-1.8322,-1.8322,0,0,0,0,0,0,-1.8361,-1.8361,-1.8354,-1.8357,-1.8356,-1.8357,-1.8355,-1.8355,-1.8353,-1.8353,-1.8352,-1.8355,-1.8351,-1.835,-1.8343,-1.8337,-1.8347,-1.8347,-1.8323,-1.8322,-1.8322,-1.8314,0,0,0,0,0,0,-1.8362,-1.8361,-1.8358,-1.8357,-1.8356,-1.8348,-1.8355,-1.8355,-1.8353,-1.8353,-1.8351,-1.8351,-1.8351,-1.8344,-1.8342,-1.8337,-1.8347,-1.8323,-1.8323,-1.8322,-1.8315,-1.8314,-1.8312,0,0,0,0,0,-1.8362,-1.8356,-1.8358,-1.8357,-1.8353,-1.8348,-1.8348,-1.8349,-1.8352,-1.8349,-1.8348,-1.8351,-1.8338,-1.8343,-1.8342,-1.8336,-1.8324,-1.8323,-1.8322,-1.8316,-1.8314,-1.8312,0,0,0,0,0,0,-1.8357,-1.8356,-1.8358,-1.8352,-1.835,-1.8349,-1.8345,-1.8347,-1.8344,-1.8345,-1.8346,-1.8345,-1.8337,-1.8336,-1.8341,-1.8326,-1.8331,-1.833,-1.8327,-1.8325,-1.8324,-1.8324,-1.8346,0,0,0,0,0,-1.8355,-1.8352,-1.8351,-1.8346,-1.8345,-1.8345,-1.8343,-1.8344,-1.8342,-1.8341,-1.834,-1.8337,-1.8332,-1.8329,-1.8324,-1.8315,-1.8313,-1.831,-1.8309,-1.8308,-1.8306,-1.8299,-1.8297,-1.8319,-1.8319,-1.8319,0,0,-1.8351,-1.835,-1.8348,-1.8345,-1.8343,-1.8339,-1.8344,-1.834,-1.8336,-1.834,-1.8333,-1.8332,-1.8328,-1.8319,-1.8315,-1.8318,-1.83,-1.8307,-1.8306,-1.8305,-1.8298,-1.8296,-1.8294,-1.8318,-1.8318,-1.8318,0,0,-1.8341,-1.8341,-1.8336,-1.8334,-1.8332,-1.8332,-1.8331,-1.8329,-1.8328,-1.8321,-1.8323,-1.8318,-1.8311,-1.8307,-1.8305,-1.8292,-1.8293,-1.8291,-1.8283,-1.8276,-1.8274,-1.8273,-1.8266,-1.8264,-1.8289,-1.8289,-1.8289,0,-1.8337,-1.8331,-1.8333,-1.8328,-1.8325,-1.8329,-1.8322,-1.832,-1.8317,-1.8314,-1.8318,-1.8306,-1.8305,-1.8294,-1.8291,-1.8289,-1.8286,-1.8291,-1.8275,-1.8273,-1.8272,-1.8265,-1.8263,-1.8289,-1.8289,-1.8289,-1.8289,0,-1.8324,-1.832,-1.8316,-1.8312,-1.8309,-1.8304,-1.8304,-1.83,-1.8301,-1.83,-1.8292,-1.8289,-1.8283,-1.8281,-1.8282,-1.827,-1.8271,-1.8275,-1.828,-1.8269,-1.8263,-1.8261,-1.8288,-1.8288,-1.8289,-1.8289,0,0,-1.8312,-1.8309,-1.8307,-1.8304,-1.8301,-1.8298,-1.8291,-1.8286,-1.8282,-1.8279,-1.8272,-1.8265,-1.8267,-1.8264,-1.8264,-1.8258,-1.8246,-1.8262,-1.8262,-1.8258,-1.823,-1.8227,-1.8224,-1.8247,-1.8247,-1.8246,-1.823,0,-1.8302,-1.8292,-1.8292,-1.8282,-1.8277,-1.8279,-1.8273,-1.827,-1.8268,-1.8263,-1.8261,-1.8255,-1.8259,-1.8257,-1.8251,-1.8249,-1.824,-1.825,-1.8239,-1.8239,-1.8239,-1.8221,-1.8219,-1.8203,-1.8227,-1.8227,-1.8227,0,-1.8289,-1.8285,-1.8274,-1.827,-1.8267,-1.8262,-1.8256,-1.8252,-1.8247,-1.8246,-1.8242,-1.8243,-1.8234,-1.824,-1.8227,-1.8234,-1.823,-1.8227,-1.8227,-1.8225,-1.8232,-1.8218,-1.8198,-1.8195,-1.8224,-1.8224,-1.8224,0,-1.8279,-1.8271,-1.8263,-1.8261,-1.8256,-1.8252,-1.825,-1.8246,-1.8242,-1.8236,-1.8233,-1.8227,-1.8223,-1.8217,-1.8215,-1.822,-1.8201,-1.8208,-1.8199,-1.8199,-1.8195,-1.8195,-1.8173,-1.8194,-1.8194,-1.8194,-1.8194,0,-1.8267,-1.826,-1.8258,-1.8253,-1.8245,-1.8245,-1.8236,-1.8234,-1.823,-1.8223,-1.8224,-1.8218,-1.8216,-1.8209,-1.8207,-1.8196,-1.8195,-1.8192,-1.8192,-1.8192,-1.8192,-1.8188,-1.8188,-1.8193,-1.8193,-1.8193,-1.8193,0,-1.8255,-1.8254,-1.8245,-1.8241,-1.824,-1.8233,-1.8229,-1.8223,-1.8221,-1.8213,-1.8211,-1.8208,-1.8199,-1.8196,-1.8186,-1.8185,-1.817,-1.8172,-1.8172,-1.8172,-1.8162,-1.8163,-1.8136,-1.8132,-1.8157,-1.8157,-1.8157,0,-1.8247,-1.8241,-1.8236,-1.8232,-1.8229,-1.8223,-1.8219,-1.8218,-1.8213,-1.8206,-1.8201,-1.8192,-1.8185,-1.817,-1.8166,-1.8157,-1.8157,-1.8149,-1.8156,-1.8155,-1.8155,-1.8155,-1.8153,-1.8147,-1.8147,-1.8147,-1.8146,0,-1.8232,-1.8231,-1.8226,-1.8219,-1.8214,-1.8208,-1.8203,-1.8199,-1.8197,-1.8192,-1.8183,-1.8177,-1.8166,-1.8156,-1.8147,-1.8143,-1.8143,-1.8144,-1.8141,-1.814,-1.814,-1.8138,-1.8167,-1.8145,-1.8145,-1.8145,-1.8145,-1.8145,-1.8221,-1.8215,-1.821,-1.8203,-1.8199,-1.8193,-1.8187,-1.8184,-1.8177,-1.8168,-1.8168,-1.8157,-1.815,-1.8138,-1.8133,-1.8124,-1.8126,-1.8123,-1.8122,-1.812,-1.8119,-1.8143,-1.8122,-1.8122,-1.8122,-1.8122,-1.8122,0,-1.8205,-1.8201,-1.8195,-1.8187,-1.8181,-1.8182,-1.8176,-1.817,-1.8161,-1.8155,-1.8148,-1.8136,-1.8126,-1.8121,-1.8111,-1.8104,-1.8104,-1.8101,-1.8101,-1.81,-1.8118,-1.8121,-1.8101,-1.8101,-1.8101,-1.8101,-1.8101,-1.8101,-1.8196,-1.8186,-1.8184,-1.8171,-1.8167,-1.8158,-1.8154,-1.8148,-1.8143,-1.813,-1.8122,-1.8118,-1.8111,-1.81,-1.809,-1.8089,-1.8084,-1.8081,-1.8079,-1.8097,-1.8099,-1.8101,-1.8103,-1.8081,-1.8081,-1.8062,-1.8062,-1.8061]}]]